Location: 10033 Water Well
(34.0865°N, 106.8959°W)
Time: 17:25:42
(UTC+00:00)

Cosmos 1703 - Pass Details

Date: 13 January 2026
Orbit: 414 x 425 km, 82.5° (Epoch: 10 February)

Event Time Altitude Azimuth Distance (km) Brightness Sun altitude
Rises 01:36:52 0° 203° (SSW) 2,395 7.2 -16.0°
Reaches altitude 10° 01:39:02 10° 213° (SSW) 1,532 6.3 -16.4°
Maximum altitude 01:42:05 34° 280° (W) 742 4.6 -17.0°
Drops below altitude 10° 01:45:10 10° 347° (NNW) 1,539 5.6 -17.6°
Enters shadow 01:47:11 - 356° (N) 2,338 6.4 -18.0°
